Showing default

COSMOS 2212, 22183

Orbit data source: Space-Track

COSMOS 2212, 22183 is a payload satellite owned by VKS (CIS) in LEO that was launched on Tue, 20 Oct 1992 UTC via a TSIKLON-3 launch vehicle from the Plesetsk Missile And Space Complex (PKMTR). Payload-class satellites include a variety of spacecraft equipped with specific instruments for various scientific and technological missions. These include communications satellites like Starlink; space stations such as the ISS; scientific satellites like the Hubble; Earth observation satellites from companies like Planet Labs, Umbra, and HawkEye 360; GPS; miniature CubeSats for education and research; and military/defense satellites.

Loading next visibility...
Identifier
22183, 1992-068B
Orbit
LEO
Country
Flag of CISCIS
Related business
Manufacturer
NPO PM
Mission
Defense Communications
Bus & Motor
STRELA-3, Unknown motor
Mass
225 kg wet, 225 kg dry
Launch date (UTC)
1992-10-20 (33 years ago)
Launch vehicle
TSIKLON-3
Launch site
Plesetsk Missile And Space Complex (PKMTR)
Object type
Payload
Rocket body
Debris
Shape & HBR
Cyl, 0.8 m
Radar Cross Section
1.257 m², Medium (>0.1 m² and < 1m²)

Expand to show TLE details & history
Last TLE update: 14 hours ago

TLE from 14 hours ago
0 COSMOS 2212
1 22183U 92068B   25310.86667417  .00000009  00000-0 -87723-5 0  9999
2 22183  82.5853 110.6081 0001857 330.9847  29.1141 12.63142501523510
Epoch: 2025-11-06T20:48Z
TLE epoch observation values (Epoch: 2025-11-06T20:48:00.648Z)
Latitude
-0.00002°
Longitude
112.28656°
Altitude
1,411.468 km
Speed
7.155 km/s
True Right ascension
07h 22m 25s
True Declination
0° 00' 00"
Sunlit
Object was in daylight at epoch
Visualization orbit readout
Latitude
Unknown
Longitude
Unknown
Altitude
Unknown
Speed
Unknown
Apparent Right ascension
Unknown
Apparent Declination
Unknown
Sunlit
N/A
Visualization observer readout
Local Sidereal Time
06:33:44
Azimuth
Unknown
Elevation
Unknown
Doppler factor
Unknown
Orbital elements
Apogee altitude
1,408.766 km
Perigee altitude
1,405.874 km
Semi-major axis
7,785.457 km
Eccentricity
0.00019
Inclination
82.5853°
RAAN
110.6081°
Arg. of periapsis
330.9847°
True anomaly
29.12446°
Mean anomaly
29.1141°
Eccentric anomaly
29.11928°
Mean motion
3.15949 °/min
Orbital period
113.94 mins
BSTAR
-0.0000087723
Loading maneuver chart data...
Computing Atmospheric mass density...
Loading historical data...
Loading historical data...
Loading historical data...
Loading historical data...
Loading historical data...
Loading historical data...
Loading historical data...

Documentation

Showing up to 5 results
|